M I D A S
Marine Information and Data Acquisition System
Tripno 1899 of the Zeeleeuw from 2010-06-11 06:57:26 to 2010-06-11 10:32:55
Back to CruiseResearch ActivitiesStationsMapUnderway DataData graphs

EquipmentUnitsComments
TimeDGPSUTC
LatitudeDGPSDM.mWGS84
LongitudeDGPSDM.mWGS84
SpeedMeteo Stationm/sRelative wind speed
DirectionMeteo StationdegRelative wind direction
TemperatureMeteo Stationdeg CelciusAir temperature
PressureMeteo StationPaAtmospheric pressure
HumidityMeteo Station%Relative humidity
Missing or incorrect values are displayed as -999
Metereological data collected by the RV Zeeleeuw from 2010-06-11 06:54:28 to 2010-06-11 11:08:51
Time Latitude Longitude Speed Direction Temperature Pressure Humidity
2010-06-11 06:55 51°13.683 2°55.865 3.7 27 14.9 100380 46
2010-06-11 06:56 51°13.688 2°55.771 2.8 37 14.9 100380 45
2010-06-11 06:57 51°13.688 2°55.748 3.4 27 14.8 100380 45
2010-06-11 06:58 51°13.71 2°55.744 0.9 31 14.9 100380 45
2010-06-11 06:59 51°13.776 2°55.675 2.7 23 14.9 100380 46
2010-06-11 07:00 51°13.89 2°55.58 3.3 22 14.9 100380 45
2010-06-11 07:01 51°14.02 2°55.487 4.6 21 14.9 100380 46
2010-06-11 07:02 51°14.158 2°55.385 4.1 320 14.9 100390 45
2010-06-11 07:03 51°14.293 2°55.263 6.4 247 14.9 100380 46
2010-06-11 07:04 51°14.429 2°55.132 7.3 27 14.9 100380 45
2010-06-11 07:05 51°14.574 2°54.962 8.6 22 14.9 100370 47
2010-06-11 07:06 51°14.654 2°54.664 11.7 321 15 100360 46
2010-06-11 07:07 51°14.554 2°54.36 12.7 334 14.9 100380 46
2010-06-11 07:08 51°14.402 2°54.069 12 331 14.8 100370 46
2010-06-11 07:09 51°14.267 2°53.771 13.4 333 14.7 100380 46
2010-06-11 07:10 51°14.128 2°53.462 11.9 335 14.6 100380 46
2010-06-11 07:11 51°13.989 2°53.15 14.5 335 14.6 100380 47
2010-06-11 07:12 51°13.85 2°52.84 12.4 335 14.5 100390 46
2010-06-11 07:13 51°13.707 2°52.525 13.5 334 14.4 100380 46
2010-06-11 07:14 51°13.569 2°52.22 11.5 333 14.4 100370 45
2010-06-11 07:15 51°13.432 2°51.92 13.6 335 14.4 100390 47
2010-06-11 07:16 51°13.32 2°51.68 11.4 335 14.3 100400 47
2010-06-11 07:17 51°13.224 2°51.469 11.8 332 14.3 100400 45
2010-06-11 07:18 51°13.181 2°51.32 8.4 27 14.3 100410 46
2010-06-11 07:19 51°13.208 2°51.227 6.8 262 14.3 100400 47
2010-06-11 07:20 51°13.262 2°51.259 4.1 19 14.2 100430 45
2010-06-11 07:21 51°13.341 2°51.393 4.1 23 14.2 100440 48
2010-06-11 07:22 51°13.401 2°51.476 5.5 267 14.2 100440 46
2010-06-11 07:23 51°13.429 2°51.462 6.7 259 14.2 100420 45
2010-06-11 07:24 51°13.423 2°51.447 6.9 260 14.2 100420 47
2010-06-11 07:25 51°13.416 2°51.436 6.4 261 14.1 100420 45
2010-06-11 07:26 51°13.408 2°51.427 5.3 263 14.1 100410 47
2010-06-11 07:27 51°13.398 2°51.419 6.2 263 14 100430 46
2010-06-11 07:28 51°13.388 2°51.412 6.6 267 13.9 100440 44
2010-06-11 07:29 51°13.377 2°51.404 7.6 29 14 100440 48
2010-06-11 07:30 51°13.369 2°51.395 7.8 270 14 100450 46
2010-06-11 07:31 51°13.362 2°51.387 6.1 265 13.9 100450 46
2010-06-11 07:32 51°13.373 2°51.357 9 21 13.9 100440 47
2010-06-11 07:33 51°13.372 2°51.277 7.8 328 14 100420 45
2010-06-11 07:34 51°13.328 2°51.212 8.8 2 13.9 100420 46
2010-06-11 07:35 51°13.266 2°51.207 7.1 6 13.9 100430 47
2010-06-11 07:36 51°13.206 2°51.205 8.9 1 13.9 100430 47
2010-06-11 07:37 51°13.148 2°51.201 8.2 2 13.9 100430 45
2010-06-11 07:38 51°13.091 2°51.194 9.4 360 13.9 100420 45
2010-06-11 07:39 51°13.028 2°51.177 9.9 353 13.8 100420 45
2010-06-11 07:40 51°12.967 2°51.131 10.9 344 13.8 100440 46
2010-06-11 07:41 51°12.913 2°51.063 11.7 334 13.9 100450 45
2010-06-11 07:42 51°12.87 2°50.983 11.2 329 13.8 100450 46
2010-06-11 07:43 51°12.834 2°50.897 9.9 335 13.8 100450 46
2010-06-11 07:44 51°12.797 2°50.812 10 333 13.8 100460 46
2010-06-11 07:45 51°12.763 2°50.735 10.1 334 13.8 100450 46
2010-06-11 07:46 51°12.731 2°50.663 11.7 335 13.8 100450 46
2010-06-11 07:47 51°12.699 2°50.586 10 331 13.8 100460 45
2010-06-11 07:48 51°12.67 2°50.502 10.1 331 13.8 100440 46
2010-06-11 07:49 51°12.641 2°50.42 11.6 334 13.9 100450 47
2010-06-11 07:50 51°12.612 2°50.341 10.6 329 13.7 100450 45
2010-06-11 07:51 51°12.583 2°50.262 10.4 331 13.6 100450 46
2010-06-11 07:52 51°12.554 2°50.185 12.3 333 13.6 100460 46
2010-06-11 07:53 51°12.524 2°50.106 9 335 13.6 100460 45
2010-06-11 07:54 51°12.494 2°50.027 10.2 332 13.6 100460 45
2010-06-11 07:55 51°12.464 2°49.943 10.6 331 13.6 100460 45
2010-06-11 07:56 51°12.435 2°49.863 9.7 334 13.5 100460 46
2010-06-11 07:57 51°12.405 2°49.778 8.6 331 13.7 100470 44
2010-06-11 07:58 51°12.375 2°49.694 8.4 333 13.8 100480 45
2010-06-11 07:59 51°12.342 2°49.611 9.7 331 13.8 100460 46
2010-06-11 08:00 51°12.311 2°49.527 9.5 333 13.7 100470 45
2010-06-11 08:01 51°12.28 2°49.448 10.2 330 13.7 100470 45
2010-06-11 08:02 51°12.251 2°49.365 9.7 331 13.6 100470 45
2010-06-11 08:03 51°12.236 2°49.279 9.6 321 13.5 100470 45
2010-06-11 08:04 51°12.237 2°49.194 10.4 33 13.5 100450 45
2010-06-11 08:05 51°12.245 2°49.112 9.6 36 13.5 100450 44
2010-06-11 08:06 51°12.252 2°49.032 9 26 13.5 100460 45
2010-06-11 08:07 51°12.256 2°48.952 11.2 317 13.6 100460 45
2010-06-11 08:08 51°12.259 2°48.87 9.5 34 13.6 100480 46
2010-06-11 08:09 51°12.262 2°48.784 9 317 13.6 100450 44
2010-06-11 08:10 51°12.266 2°48.7 11.9 32 13.6 100460 45
2010-06-11 08:11 51°12.272 2°48.622 11 24 13.5 100470 46
2010-06-11 08:12 51°12.277 2°48.545 10.6 36 13.6 100470 46
2010-06-11 08:13 51°12.284 2°48.465 10.4 39 13.6 100460 44
2010-06-11 08:14 51°12.292 2°48.388 10.6 32 13.5 100470 45
2010-06-11 08:15 51°12.298 2°48.309 7.8 317 13.6 100480 45
2010-06-11 08:16 51°12.294 2°48.229 9.5 322 13.7 100470 44
2010-06-11 08:17 51°12.284 2°48.15 12.3 322 13.7 100490 45
2010-06-11 08:18 51°12.273 2°48.071 10.8 323 13.7 100490 46
2010-06-11 08:19 51°12.249 2°48.002 10.9 338 13.7 100500 44
2010-06-11 08:20 51°12.208 2°47.956 10 352 13.6 100490 46
2010-06-11 08:21 51°12.158 2°47.935 10.6 355 13.7 100480 46
2010-06-11 08:22 51°12.103 2°47.926 10 5 13.8 100490 44
2010-06-11 08:23 51°12.048 2°47.912 9.6 -999 13.7 100490 44
2010-06-11 08:24 51°11.996 2°47.891 9.9 356 13.6 100490 44
2010-06-11 08:25 51°11.947 2°47.863 10.1 355 13.6 100490 44
2010-06-11 08:26 51°11.901 2°47.829 7.8 347 13.6 100500 44
2010-06-11 08:27 51°11.86 2°47.78 10.3 342 13.7 100510 44
2010-06-11 08:28 51°11.826 2°47.716 9.3 337 13.7 100520 46
2010-06-11 08:29 51°11.809 2°47.66 9.8 324 13.6 100510 46
2010-06-11 08:30 51°11.804 2°47.626 8.7 34 13.6 100510 44
2010-06-11 08:31 51°11.836 2°47.481 12.9 320 13.7 100500 44
2010-06-11 08:32 51°11.862 2°47.255 10.2 323 13.7 100500 44
2010-06-11 08:33 51°11.848 2°47.131 10.7 332 13.7 100530 45
2010-06-11 08:34 51°11.826 2°47.068 9.9 342 13.7 100520 44
2010-06-11 08:35 51°11.805 2°47.039 9.5 343 13.6 100530 44
2010-06-11 08:36 51°11.787 2°47.008 10 334 13.7 100530 45
2010-06-11 08:37 51°11.772 2°46.971 10.1 339 13.6 100540 44
2010-06-11 08:38 51°11.754 2°46.916 9.3 332 13.6 100530 45
2010-06-11 08:39 51°11.729 2°46.781 10.8 334 13.6 100530 45
2010-06-11 08:40 51°11.704 2°46.512 15.1 330 13.7 100540 45
2010-06-11 08:41 51°11.688 2°46.181 16.6 331 13.7 100520 44
2010-06-11 08:42 51°11.672 2°45.847 14.4 329 13.7 100530 45
2010-06-11 08:43 51°11.654 2°45.507 16.8 330 13.7 100540 43
2010-06-11 08:44 51°11.636 2°45.18 16 331 13.8 100550 44
2010-06-11 08:45 51°11.619 2°44.844 17 332 13.7 100530 45
2010-06-11 08:46 51°11.601 2°44.521 15.7 332 13.7 100530 44
2010-06-11 08:47 51°11.583 2°44.195 15.7 332 13.7 100540 44
2010-06-11 08:48 51°11.564 2°43.873 14.4 334 13.7 100560 44
2010-06-11 08:49 51°11.545 2°43.553 13.7 333 13.7 100550 45
2010-06-11 08:50 51°11.524 2°43.235 14.7 334 13.6 100550 45
2010-06-11 08:51 51°11.504 2°42.916 15.9 335 13.6 100560 45
2010-06-11 08:52 51°11.483 2°42.613 13.9 336 13.6 100560 44
2010-06-11 08:53 51°11.466 2°42.39 9.5 338 13.5 100560 44
2010-06-11 08:54 51°11.442 2°42.252 10.2 345 13.6 100550 44
2010-06-11 08:55 51°11.398 2°42.159 9.6 350 13.5 100550 44
2010-06-11 08:56 51°11.357 2°42.08 10.7 350 13.4 100550 45
2010-06-11 08:57 51°11.324 2°42.024 10.5 351 13.4 100560 45
2010-06-11 08:58 51°11.295 2°41.975 10.1 351 13.4 100550 44
2010-06-11 08:59 51°11.267 2°41.934 10 352 13.4 100560 45
2010-06-11 09:00 51°11.239 2°41.895 9.2 351 13.3 100560 44
2010-06-11 09:01 51°11.212 2°41.859 9.3 355 13.3 100560 45
2010-06-11 09:02 51°11.187 2°41.821 8.8 348 13.4 100560 44
2010-06-11 09:03 51°11.162 2°41.785 9.8 350 13.4 100570 45
2010-06-11 09:04 51°11.136 2°41.75 9.9 351 13.3 100570 44
2010-06-11 09:05 51°11.111 2°41.716 8.9 355 13.3 100580 45
2010-06-11 09:06 51°11.085 2°41.682 7.9 356 13.3 100570 44
2010-06-11 09:07 51°11.06 2°41.646 7.9 355 13.4 100590 46
2010-06-11 09:08 51°11.036 2°41.611 8.4 350 13.5 100580 46
2010-06-11 09:09 51°11.012 2°41.576 8.4 352 13.5 100580 45
2010-06-11 09:10 51°10.988 2°41.542 8.3 354 13.4 100580 45
2010-06-11 09:11 51°10.966 2°41.509 9.8 353 13.5 100580 46
2010-06-11 09:12 51°10.945 2°41.477 10.8 356 13.4 100580 44
2010-06-11 09:13 51°10.924 2°41.446 9.6 357 13.3 100580 44
2010-06-11 09:14 51°10.903 2°41.412 8.9 357 13.4 100580 44
2010-06-11 09:15 51°10.881 2°41.38 9.3 356 13.4 100590 45
2010-06-11 09:16 51°10.859 2°41.347 9.3 356 13.4 100580 46
2010-06-11 09:17 51°10.836 2°41.316 9.4 356 13.4 100590 44
2010-06-11 09:18 51°10.815 2°41.285 8.8 354 13.4 100590 44
2010-06-11 09:19 51°10.793 2°41.255 9.2 -999 13.3 100590 44
2010-06-11 09:20 51°10.775 2°41.221 8 351 13.4 100600 44
2010-06-11 09:21 51°10.765 2°41.179 7.6 345 13.4 100610 46
2010-06-11 09:22 51°10.764 2°41.134 9.7 339 13.5 100630 44
2010-06-11 09:23 51°10.77 2°41.088 8 332 13.5 100620 44
2010-06-11 09:24 51°10.778 2°41.039 9.4 338 13.5 100640 46
2010-06-11 09:25 51°10.785 2°40.99 7.7 338 13.5 100630 45
2010-06-11 09:26 51°10.793 2°40.94 7.5 339 13.6 100640 44
2010-06-11 09:27 51°10.801 2°40.893 8.8 337 13.5 100640 44
2010-06-11 09:28 51°10.808 2°40.847 8.3 342 13.5 100640 44
2010-06-11 09:29 51°10.817 2°40.803 8.3 335 13.5 100640 45
2010-06-11 09:30 51°10.823 2°40.756 8.3 342 13.5 100650 45
2010-06-11 09:31 51°10.827 2°40.709 9.4 343 13.5 100650 44
2010-06-11 09:32 51°10.833 2°40.662 9.2 337 13.5 100640 45
2010-06-11 09:33 51°10.841 2°40.613 7.3 336 13.5 100650 44
2010-06-11 09:34 51°10.847 2°40.564 8.5 346 13.6 100650 44
2010-06-11 09:35 51°10.835 2°40.516 9.1 356 13.6 100640 44
2010-06-11 09:36 51°10.813 2°40.47 8.4 359 13.6 100640 44
2010-06-11 09:37 51°10.791 2°40.423 9 355 13.6 100640 46
2010-06-11 09:38 51°10.77 2°40.374 8.6 355 13.5 100640 44
2010-06-11 09:39 51°10.749 2°40.324 9.3 354 13.5 100650 46
2010-06-11 09:40 51°10.727 2°40.276 7.5 360 13.5 100640 44
2010-06-11 09:41 51°10.705 2°40.232 8.6 356 13.5 100640 44
2010-06-11 09:42 51°10.685 2°40.188 8.4 352 13.4 100650 44
2010-06-11 09:43 51°10.668 2°40.143 8.4 359 13.4 100640 44
2010-06-11 09:44 51°10.65 2°40.102 8.7 355 13.5 100650 44
2010-06-11 09:45 51°10.634 2°40.061 8.1 359 13.5 100640 44
2010-06-11 09:46 51°10.617 2°40.021 8.9 358 13.5 100650 46
2010-06-11 09:47 51°10.601 2°39.98 8.7 360 13.5 100650 44
2010-06-11 09:48 51°10.583 2°39.939 8.4 359 13.5 100650 46
2010-06-11 09:49 51°10.564 2°39.898 9.2 358 13.6 100650 46
2010-06-11 09:50 51°10.491 2°39.876 6 40 13.6 100660 46
2010-06-11 09:51 51°10.439 2°40.086 4 270 13.6 100690 46
2010-06-11 09:52 51°10.407 2°40.429 2.9 268 13.6 100690 45
2010-06-11 09:53 51°10.351 2°40.791 3.5 26 13.6 100700 45
2010-06-11 09:54 51°10.279 2°41.151 1.5 31 13.6 100690 47
2010-06-11 09:55 51°10.211 2°41.516 0.5 263 13.7 100690 45
2010-06-11 09:56 51°10.149 2°41.886 3.5 258 13.8 100700 47
2010-06-11 09:57 51°10.137 2°42.257 5.7 260 13.8 100690 44
2010-06-11 09:58 51°10.167 2°42.529 5.9 27 13.8 100690 46
2010-06-11 09:59 51°10.193 2°42.736 6.4 263 13.8 100700 43
2010-06-11 10:00 51°10.203 2°42.816 6.8 263 13.8 100700 45
2010-06-11 10:01 51°10.194 2°42.846 8.3 268 13.9 100700 45
2010-06-11 10:02 51°10.19 2°42.879 8.1 25 13.9 100710 44
2010-06-11 10:03 51°10.19 2°42.92 7.9 25 13.8 100710 46
2010-06-11 10:04 51°10.191 2°42.97 7.2 269 13.8 100710 44
2010-06-11 10:05 51°10.195 2°43.021 6.5 269 13.9 100720 46
2010-06-11 10:06 51°10.199 2°43.074 5.4 263 13.8 100720 44
2010-06-11 10:07 51°10.203 2°43.127 7.3 262 13.8 100720 45
2010-06-11 10:08 51°10.205 2°43.178 5.7 263 13.9 100730 44
2010-06-11 10:09 51°10.206 2°43.23 4.7 265 13.8 100730 46
2010-06-11 10:10 51°10.208 2°43.282 5.5 263 13.8 100740 46
2010-06-11 10:11 51°10.21 2°43.335 6.1 262 13.9 100740 44
2010-06-11 10:12 51°10.229 2°43.41 7.5 258 13.8 100740 45
2010-06-11 10:13 51°10.289 2°43.522 8.5 248 13.8 100730 44
2010-06-11 10:14 51°10.397 2°43.697 8.8 22 13.8 100720 44
2010-06-11 10:15 51°10.524 2°43.909 7.5 251 13.9 100730 44
2010-06-11 10:16 51°10.633 2°44.143 6.7 248 13.9 100720 44
2010-06-11 10:17 51°10.742 2°44.385 7.2 250 13.9 100730 44
2010-06-11 10:18 51°10.854 2°44.626 7.4 249 13.9 100730 44
2010-06-11 10:19 51°10.965 2°44.866 6.5 248 14 100730 43
2010-06-11 10:20 51°11.079 2°45.107 6.8 22 14 100730 45
2010-06-11 10:21 51°11.192 2°45.35 7.4 251 14 100730 44
2010-06-11 10:22 51°11.299 2°45.601 7.4 249 14 100730 44
2010-06-11 10:23 51°11.402 2°45.857 7.4 257 14 100730 45
2010-06-11 10:24 51°11.5 2°46.116 5.8 254 14 100740 44
2010-06-11 10:25 51°11.588 2°46.386 7.8 257 14.1 100740 44
2010-06-11 10:26 51°11.683 2°46.651 6.4 253 14.1 100740 44
2010-06-11 10:27 51°11.778 2°46.915 6.6 257 14.1 100740 42
2010-06-11 10:28 51°11.874 2°47.18 7.7 250 14.1 100730 46
2010-06-11 10:29 51°11.97 2°47.445 8.2 258 14.1 100730 46
2010-06-11 10:30 51°12.067 2°47.71 6.1 261 14.1 100740 43
2010-06-11 10:31 51°12.164 2°47.975 7.9 255 14.1 100730 44
2010-06-11 10:32 51°12.261 2°48.24 7.7 252 14.1 100730 46
2010-06-11 10:33 51°12.359 2°48.505 7.1 251 14.1 100730 46
2010-06-11 10:34 51°12.457 2°48.771 8 255 14.1 100720 45
2010-06-11 10:35 51°12.556 2°49.036 7.2 255 14.1 100730 43
2010-06-11 10:36 51°12.655 2°49.302 8.1 253 14.1 100720 44
2010-06-11 10:37 51°12.755 2°49.569 8.2 20 14.1 100720 45
2010-06-11 10:38 51°12.855 2°49.837 8.2 251 14.1 100720 43
2010-06-11 10:39 51°12.955 2°50.106 6.3 251 14.1 100730 45
2010-06-11 10:40 51°13.057 2°50.376 7.3 20 14.1 100730 44
2010-06-11 10:41 51°13.158 2°50.647 7.6 251 14.2 100730 45
2010-06-11 10:42 51°13.26 2°50.918 7.5 253 14.1 100720 46
2010-06-11 10:43 51°13.364 2°51.188 7 251 14.1 100730 42
2010-06-11 10:44 51°13.467 2°51.458 7.8 250 14.1 100740 44
2010-06-11 10:45 51°13.57 2°51.729 8 251 14.2 100740 44
2010-06-11 10:46 51°13.673 2°51.998 7.6 255 14.1 100730 44
2010-06-11 10:47 51°13.776 2°52.268 8.9 250 14.2 100740 44
2010-06-11 10:48 51°13.881 2°52.536 7.4 249 14.2 100750 46
2010-06-11 10:49 51°13.985 2°52.807 7 250 14.2 100750 45
2010-06-11 10:50 51°14.089 2°53.076 8 252 14.1 100750 44
2010-06-11 10:51 51°14.195 2°53.346 7.1 249 14.2 100760 43
2010-06-11 10:52 51°14.301 2°53.617 7.2 249 14.1 100760 45
2010-06-11 10:53 51°14.407 2°53.884 7 253 14.2 100760 44
2010-06-11 10:54 51°14.515 2°54.149 6.7 241 14.1 100770 45
2010-06-11 10:55 51°14.621 2°54.416 6.9 249 14.2 100760 44
2010-06-11 10:56 51°14.659 2°54.712 2 28 14.2 100770 45
2010-06-11 10:57 51°14.574 2°54.97 2.1 27 14.1 100780 45
2010-06-11 10:58 51°14.422 2°55.147 4.3 24 14.1 100770 44
2010-06-11 10:59 51°14.257 2°55.295 4.4 26 14.1 100770 44
2010-06-11 11:00 51°14.122 2°55.408 5.1 33 14.1 100770 46
2010-06-11 11:01 51°13.989 2°55.503 2.7 40 14.1 100780 44
2010-06-11 11:02 51°13.878 2°55.585 0.8 6 14.1 100780 45
2010-06-11 11:03 51°13.774 2°55.679 2.6 23 14.1 100780 46
2010-06-11 11:04 51°13.71 2°55.795 1.7 27 14 100780 44
2010-06-11 11:05 51°13.681 2°55.895 3.5 35 14.1 100780 46
2010-06-11 11:06 51°13.664 2°55.952 4.7 22 14.1 100770 46
2010-06-11 11:07 51°13.661 2°55.96 4.3 25 14.2 100760 45
2010-06-11 11:08 51°13.662 2°55.96 3.7 23 14.2 100760 46